Time,TemperatureF,DewpointF,PressureIn,WindDirection,WindDirectionDegrees,WindSpeedMPH,WindSpeedGustMPH,Humidity,HourlyPrecipIn,Conditions,Clouds,dailyrainin,SoftwareType,DateUTC
2013-02-14 00:02:00,53.0,-99.9,29.75,West,272,23.0,31.0,-999,-99.99,,,-99.99,,2013-02-14 05:02:00,
2013-02-14 00:11:00,53.0,-99.9,29.75,West,271,20.0,26.0,-999,-99.99,,,-99.99,,2013-02-14 05:11:00,
2013-02-14 00:22:00,53.0,-99.9,29.75,West,271,19.0,25.0,-999,-99.99,,,-99.99,,2013-02-14 05:22:00,
2013-02-14 00:32:00,53.0,-99.9,29.75,West,273,19.0,25.0,-999,-99.99,,,-99.99,,2013-02-14 05:32:00,
2013-02-14 00:42:00,52.0,-99.9,29.75,West,273,17.0,22.0,-999,-99.99,,,-99.99,,2013-02-14 05:42:00,
2013-02-14 00:52:00,52.0,-99.9,29.76,West,268,17.0,20.0,-999,-99.99,,,-99.99,,2013-02-14 05:52:00,
2013-02-14 01:02:00,52.0,-99.9,29.77,West,267,19.0,23.0,-999,-99.99,,,-99.99,,2013-02-14 06:02:00,
2013-02-14 01:11:00,52.0,-99.9,29.78,West,267,18.0,22.0,-999,-99.99,,,-99.99,,2013-02-14 06:11:00,
2013-02-14 01:22:00,52.0,-99.9,29.77,West,272,19.0,21.0,-999,-99.99,,,-99.99,,2013-02-14 06:22:00,
2013-02-14 01:32:00,52.0,-99.9,29.77,West,275,17.0,22.0,-999,-99.99,,,-99.99,,2013-02-14 06:32:00,
2013-02-14 01:42:00,52.0,-99.9,29.77,West,274,17.0,20.0,-999,-99.99,,,-99.99,,2013-02-14 06:42:00,
2013-02-14 01:52:00,51.0,-99.9,29.77,West,277,18.0,21.0,-999,-99.99,,,-99.99,,2013-02-14 06:52:00,
2013-02-14 02:01:00,51.0,-99.9,29.77,West,281,19.0,20.0,-999,-99.99,,,-99.99,,2013-02-14 07:01:00,
2013-02-14 02:11:00,51.0,-99.9,29.77,West,281,21.0,23.0,-999,-99.99,,,-99.99,,2013-02-14 07:11:00,
2013-02-14 02:22:00,51.0,-99.9,29.77,WNW,288,19.0,22.0,-999,-99.99,,,-99.99,,2013-02-14 07:22:00,
2013-02-14 02:32:00,51.0,-99.9,29.77,WNW,294,20.0,23.0,-999,-99.99,,,-99.99,,2013-02-14 07:32:00,
2013-02-14 02:42:00,51.0,-99.9,29.78,WNW,292,22.0,25.0,-999,-99.99,,,-99.99,,2013-02-14 07:42:00,
2013-02-14 02:52:00,51.0,-99.9,29.78,WNW,295,20.0,24.0,-999,-99.99,,,-99.99,,2013-02-14 07:52:00,
2013-02-14 03:01:00,51.0,-99.9,29.80,WNW,293,21.0,24.0,-999,-99.99,,,-99.99,,2013-02-14 08:01:00,
2013-02-14 03:11:00,51.0,-99.9,29.80,WNW,292,21.0,24.0,-999,-99.99,,,-99.99,,2013-02-14 08:11:00,
2013-02-14 03:22:00,50.0,-99.9,29.81,WNW,294,21.0,24.0,-999,-99.99,,,-99.99,,2013-02-14 08:22:00,
2013-02-14 03:32:00,50.0,-99.9,29.81,WNW,297,21.0,24.0,-999,-99.99,,,-99.99,,2013-02-14 08:32:00,
2013-02-14 03:43:00,50.0,-99.9,29.81,WNW,301,19.0,24.0,-999,-99.99,,,-99.99,,2013-02-14 08:43:00,
2013-02-14 03:52:00,50.0,-99.9,29.82,WNW,299,21.0,24.0,-999,-99.99,,,-99.99,,2013-02-14 08:52:00,
2013-02-14 04:02:00,49.0,-99.9,29.83,WNW,302,20.0,23.0,-999,-99.99,,,-99.99,,2013-02-14 09:02:00,
2013-02-14 04:11:00,49.0,-99.9,29.83,WNW,302,18.0,21.0,-999,-99.99,,,-99.99,,2013-02-14 09:11:00,
2013-02-14 04:22:00,49.0,-99.9,29.84,NW,304,23.0,26.0,-999,-99.99,,,-99.99,,2013-02-14 09:22:00,
2013-02-14 04:32:00,48.0,-99.9,29.84,NW,317,22.0,25.0,-999,-99.99,,,-99.99,,2013-02-14 09:32:00,
2013-02-14 04:42:00,48.0,-99.9,29.85,NW,320,24.0,26.0,-999,-99.99,,,-99.99,,2013-02-14 09:42:00,
2013-02-14 04:52:00,47.0,-99.9,29.86,NW,316,23.0,26.0,-999,-99.99,,,-99.99,,2013-02-14 09:52:00,
2013-02-14 05:02:00,47.0,-99.9,29.86,NW,318,20.0,25.0,-999,-99.99,,,-99.99,,2013-02-14 10:02:00,
2013-02-14 05:11:00,47.0,-99.9,29.87,NW,322,21.0,25.0,-999,-99.99,,,-99.99,,2013-02-14 10:11:00,
2013-02-14 05:22:00,47.0,-99.9,29.88,NW,321,22.0,25.0,-999,-99.99,,,-99.99,,2013-02-14 10:22:00,
2013-02-14 05:32:00,47.0,-99.9,29.89,NW,322,20.0,23.0,-999,-99.99,,,-99.99,,2013-02-14 10:32:00,
2013-02-14 05:42:00,46.0,-99.9,29.89,NW,325,20.0,22.0,-999,-99.99,,,-99.99,,2013-02-14 10:42:00,
2013-02-14 05:52:00,46.0,-99.9,29.90,NW,325,20.0,23.0,-999,-99.99,,,-99.99,,2013-02-14 10:52:00,
2013-02-14 06:02:00,46.0,-99.9,29.91,NNW,330,18.0,25.0,-999,-99.99,,,-99.99,,2013-02-14 11:02:00,
2013-02-14 06:11:00,46.0,-99.9,29.91,NNW,329,20.0,24.0,-999,-99.99,,,-99.99,,2013-02-14 11:11:00,
2013-02-14 06:22:00,46.0,-99.9,29.92,NNW,339,17.0,20.0,-999,-99.99,,,-99.99,,2013-02-14 11:22:00,
2013-02-14 06:32:00,46.0,-99.9,29.92,NNW,343,19.0,25.0,-999,-99.99,,,-99.99,,2013-02-14 11:32:00,
2013-02-14 06:42:00,46.0,-99.9,29.93,NW,322,19.0,22.0,-999,-99.99,,,-99.99,,2013-02-14 11:42:00,
2013-02-14 06:52:00,45.0,-99.9,29.93,NW,324,19.0,22.0,-999,-99.99,,,-99.99,,2013-02-14 11:52:00,
2013-02-14 07:02:00,45.0,-99.9,29.93,NW,326,19.0,23.0,-999,-99.99,,,-99.99,,2013-02-14 12:02:00,
2013-02-14 07:12:00,45.0,-99.9,29.93,NNW,328,18.0,22.0,-999,-99.99,,,-99.99,,2013-02-14 12:12:00,
2013-02-14 07:22:00,45.0,-99.9,29.93,NNW,327,17.0,22.0,-999,-99.99,,,-99.99,,2013-02-14 12:22:00,
2013-02-14 07:32:00,45.0,-99.9,29.94,NNW,331,18.0,21.0,-999,-99.99,,,-99.99,,2013-02-14 12:32:00,
2013-02-14 07:42:00,45.0,-99.9,29.94,NNW,335,19.0,21.0,-999,-99.99,,,-99.99,,2013-02-14 12:42:00,
2013-02-14 07:53:00,45.0,-99.9,29.94,NNW,333,19.0,21.0,-999,-99.99,,,-99.99,,2013-02-14 12:53:00,
2013-02-14 08:02:00,45.0,-99.9,29.95,NNW,332,17.0,20.0,-999,-99.99,,,-99.99,,2013-02-14 13:02:00,
2013-02-14 08:11:00,45.0,-99.9,29.95,NNW,338,19.0,21.0,-999,-99.99,,,-99.99,,2013-02-14 13:11:00,
2013-02-14 08:21:00,45.0,-99.9,29.96,NNW,348,18.0,23.0,-999,-99.99,,,-99.99,,2013-02-14 13:21:00,
2013-02-14 08:32:00,45.0,-99.9,29.95,NNW,338,20.0,25.0,-999,-99.99,,,-99.99,,2013-02-14 13:32:00,
2013-02-14 08:42:00,45.0,-99.9,29.96,NNE,16,18.0,21.0,-999,-99.99,,,-99.99,,2013-02-14 13:42:00,
2013-02-14 08:52:00,45.0,-99.9,29.96,North,349,17.0,22.0,-999,-99.99,,,-99.99,,2013-02-14 13:52:00,
2013-02-14 09:01:00,45.0,-99.9,29.97,North,349,18.0,23.0,-999,-99.99,,,-99.99,,2013-02-14 14:01:00,
2013-02-14 09:11:00,44.0,-99.9,29.97,North,352,18.0,21.0,-999,-99.99,,,-99.99,,2013-02-14 14:11:00,
2013-02-14 09:22:00,45.0,-99.9,29.99,NNE,21,17.0,20.0,-999,-99.99,,,-99.99,,2013-02-14 14:22:00,
2013-02-14 09:32:00,44.0,-99.9,29.99,North,354,17.0,20.0,-999,-99.99,,,-99.99,,2013-02-14 14:32:00,
2013-02-14 09:42:00,44.0,-99.9,30.00,NNE,24,19.0,21.0,-999,-99.99,,,-99.99,,2013-02-14 14:42:00,
2013-02-14 09:52:00,44.0,-99.9,30.00,NNE,16,16.0,21.0,-999,-99.99,,,-99.99,,2013-02-14 14:52:00,
2013-02-14 10:02:00,44.0,-99.9,30.00,NNE,20,16.0,20.0,-999,-99.99,,,-99.99,,2013-02-14 15:02:00,
2013-02-14 10:11:00,44.0,-99.9,30.01,NNW,347,18.0,22.0,-999,-99.99,,,-99.99,,2013-02-14 15:11:00,
2013-02-14 10:22:00,45.0,-99.9,30.00,NNE,22,19.0,22.0,-999,-99.99,,,-99.99,,2013-02-14 15:22:00,
2013-02-14 10:32:00,44.0,-99.9,30.00,NNE,28,17.0,22.0,-999,-99.99,,,-99.99,,2013-02-14 15:32:00,
2013-02-14 10:42:00,45.0,-99.9,29.99,NNE,33,13.0,18.0,-999,-99.99,,,-99.99,,2013-02-14 15:42:00,
2013-02-14 10:52:00,44.0,-99.9,30.01,NNE,22,17.0,20.0,-999,-99.99,,,-99.99,,2013-02-14 15:52:00,
2013-02-14 11:02:00,45.0,-99.9,30.01,NNW,343,14.0,19.0,-999,-99.99,,,-99.99,,2013-02-14 16:02:00,
2013-02-14 11:11:00,45.0,-99.9,30.01,NNE,17,17.0,20.0,-999,-99.99,,,-99.99,,2013-02-14 16:11:00,
2013-02-14 11:22:00,45.0,-99.9,30.00,NNE,22,18.0,20.0,-999,-99.99,,,-99.99,,2013-02-14 16:22:00,
2013-02-14 11:32:00,45.0,-99.9,30.01,North,6,17.0,20.0,-999,-99.99,,,-99.99,,2013-02-14 16:32:00,
2013-02-14 11:42:00,45.0,-99.9,30.02,NNE,26,16.0,19.0,-999,-99.99,,,-99.99,,2013-02-14 16:42:00,
2013-02-14 11:52:00,45.0,-99.9,30.01,NNE,21,16.0,18.0,-999,-99.99,,,-99.99,,2013-02-14 16:52:00,
2013-02-14 12:01:00,45.0,-99.9,30.01,NNE,26,15.0,18.0,-999,-99.99,,,-99.99,,2013-02-14 17:01:00,
2013-02-14 12:11:00,45.0,-99.9,30.00,NNE,19,15.0,19.0,-999,-99.99,,,-99.99,,2013-02-14 17:11:00,
2013-02-14 12:22:00,45.0,-99.9,30.01,NNE,27,15.0,19.0,-999,-99.99,,,-99.99,,2013-02-14 17:22:00,
2013-02-14 12:32:00,45.0,-99.9,30.01,NNE,15,14.0,17.0,-999,-99.99,,,-99.99,,2013-02-14 17:32:00,
2013-02-14 12:42:00,45.0,-99.9,30.01,North,5,15.0,17.0,-999,-99.99,,,-99.99,,2013-02-14 17:42:00,
2013-02-14 12:52:00,46.0,-99.9,30.02,NNE,19,11.0,14.0,-999,-99.99,,,-99.99,,2013-02-14 17:52:00,
2013-02-14 13:02:00,45.0,-99.9,30.02,North,11,10.0,14.0,-999,-99.99,,,-99.99,,2013-02-14 18:02:00,
2013-02-14 13:11:00,45.0,-99.9,30.02,NNW,342,11.0,13.0,-999,-99.99,,,-99.99,,2013-02-14 18:11:00,
2013-02-14 13:23:00,45.0,-99.9,30.01,NNW,345,11.0,14.0,-999,-99.99,,,-99.99,,2013-02-14 18:23:00,
2013-02-14 13:32:00,45.0,-99.9,30.01,North,359,13.0,15.0,-999,-99.99,,,-99.99,,2013-02-14 18:32:00,
2013-02-14 13:42:00,45.0,-99.9,30.01,NNW,338,12.0,15.0,-999,-99.99,,,-99.99,,2013-02-14 18:42:00,
2013-02-14 13:52:00,45.0,-99.9,30.01,North,350,12.0,14.0,-999,-99.99,,,-99.99,,2013-02-14 18:52:00,
2013-02-14 14:02:00,45.0,-99.9,30.00,NNW,345,12.0,13.0,-999,-99.99,,,-99.99,,2013-02-14 19:02:00,
2013-02-14 14:11:00,45.0,-99.9,30.01,North,351,11.0,13.0,-999,-99.99,,,-99.99,,2013-02-14 19:11:00,
2013-02-14 14:22:00,45.0,-99.9,30.00,NNW,330,11.0,14.0,-999,-99.99,,,-99.99,,2013-02-14 19:22:00,
2013-02-14 14:32:00,45.0,-99.9,30.01,NNW,331,11.0,14.0,-999,-99.99,,,-99.99,,2013-02-14 19:32:00,
2013-02-14 14:42:00,45.0,-99.9,30.01,NNW,332,11.0,13.0,-999,-99.99,,,-99.99,,2013-02-14 19:42:00,
2013-02-14 14:52:00,45.0,-99.9,30.02,North,10,8.0,11.0,-999,-99.99,,,-99.99,,2013-02-14 19:52:00,
2013-02-14 15:01:00,45.0,-99.9,30.01,NNW,340,8.0,11.0,-999,-99.99,,,-99.99,,2013-02-14 20:01:00,
2013-02-14 15:11:00,45.0,-99.9,30.01,North,3,9.0,11.0,-999,-99.99,,,-99.99,,2013-02-14 20:11:00,
2013-02-14 15:22:00,45.0,-99.9,30.00,North,352,8.0,11.0,-999,-99.99,,,-99.99,,2013-02-14 20:22:00,
2013-02-14 15:32:00,46.0,-99.9,30.00,NNW,348,9.0,12.0,-999,-99.99,,,-99.99,,2013-02-14 20:32:00,
2013-02-14 15:42:00,45.0,-99.9,30.01,North,9,11.0,13.0,-999,-99.99,,,-99.99,,2013-02-14 20:42:00,
2013-02-14 15:52:00,46.0,-99.9,30.01,NNW,345,7.0,10.0,-999,-99.99,,,-99.99,,2013-02-14 20:52:00,
2013-02-14 16:02:00,46.0,-99.9,30.01,NNE,31,6.0,9.0,-999,-99.99,,,-99.99,,2013-02-14 21:02:00,
2013-02-14 16:11:00,46.0,-99.9,30.01,North,7,7.0,9.0,-999,-99.99,,,-99.99,,2013-02-14 21:11:00,
2013-02-14 16:22:00,46.0,-99.9,30.02,NNE,14,6.0,8.0,-999,-99.99,,,-99.99,,2013-02-14 21:22:00,
2013-02-14 16:32:00,46.0,-99.9,30.02,North,357,7.0,9.0,-999,-99.99,,,-99.99,,2013-02-14 21:32:00,
2013-02-14 16:42:00,46.0,-99.9,30.01,NNE,23,8.0,9.0,-999,-99.99,,,-99.99,,2013-02-14 21:42:00,
2013-02-14 16:52:00,46.0,-99.9,30.02,North,10,5.0,9.0,-999,-99.99,,,-99.99,,2013-02-14 21:52:00,
2013-02-14 17:02:00,46.0,-99.9,30.02,NNE,31,6.0,9.0,-999,-99.99,,,-99.99,,2013-02-14 22:02:00,
2013-02-14 17:11:00,46.0,-99.9,30.02,NNE,23,5.0,7.0,-999,-99.99,,,-99.99,,2013-02-14 22:11:00,
2013-02-14 17:21:00,46.0,-99.9,30.02,NNE,27,6.0,8.0,-999,-99.99,,,-99.99,,2013-02-14 22:21:00,
2013-02-14 17:32:00,46.0,-99.9,30.02,NE,56,4.0,6.0,-999,-99.99,,,-99.99,,2013-02-14 22:32:00,
2013-02-14 17:42:00,46.0,-99.9,30.03,ENE,71,3.0,6.0,-999,-99.99,,,-99.99,,2013-02-14 22:42:00,
2013-02-14 17:52:00,46.0,-99.9,30.03,NE,55,3.0,4.0,-999,-99.99,,,-99.99,,2013-02-14 22:52:00,
2013-02-14 18:01:00,45.0,-99.9,30.04,ENE,72,3.0,4.0,-999,-99.99,,,-99.99,,2013-02-14 23:01:00,
2013-02-14 18:11:00,45.0,-99.9,30.04,NE,55,4.0,5.0,-999,-99.99,,,-99.99,,2013-02-14 23:11:00,
2013-02-14 18:22:00,45.0,-99.9,30.04,NE,47,4.0,6.0,-999,-99.99,,,-99.99,,2013-02-14 23:22:00,
2013-02-14 18:32:00,45.0,-99.9,30.04,NE,53,4.0,6.0,-999,-99.99,,,-99.99,,2013-02-14 23:32:00,
2013-02-14 18:42:00,45.0,-99.9,30.04,NE,50,4.0,6.0,-999,-99.99,,,-99.99,,2013-02-14 23:42:00,
2013-02-14 18:52:00,45.0,-99.9,30.05,NE,55,4.0,7.0,-999,-99.99,,,-99.99,,2013-02-14 23:52:00,
2013-02-14 19:02:00,45.0,-99.9,30.04,NE,51,5.0,8.0,-999,-99.99,,,-99.99,,2013-02-15 00:02:00,
2013-02-14 19:11:00,45.0,-99.9,30.04,ENE,66,6.0,8.0,-999,-99.99,,,-99.99,,2013-02-15 00:11:00,
2013-02-14 19:22:00,45.0,-99.9,30.05,ENE,74,5.0,6.0,-999,-99.99,,,-99.99,,2013-02-15 00:22:00,
2013-02-14 19:32:00,45.0,-99.9,30.05,East,100,5.0,6.0,-999,-99.99,,,-99.99,,2013-02-15 00:32:00,
2013-02-14 19:42:00,44.0,-99.9,30.05,ENE,72,4.0,6.0,-999,-99.99,,,-99.99,,2013-02-15 00:42:00,
2013-02-14 19:52:00,44.0,-99.9,30.05,ENE,74,2.0,4.0,-999,-99.99,,,-99.99,,2013-02-15 00:52:00,
2013-02-14 20:02:00,44.0,-99.9,30.06,ENE,67,3.0,4.0,-999,-99.99,,,-99.99,,2013-02-15 01:02:00,
2013-02-14 20:11:00,44.0,-99.9,30.06,ESE,106,4.0,4.0,-999,-99.99,,,-99.99,,2013-02-15 01:11:00,
2013-02-14 20:22:00,44.0,-99.9,30.06,ESE,107,4.0,5.0,-999,-99.99,,,-99.99,,2013-02-15 01:22:00,
2013-02-14 20:32:00,45.0,-99.9,30.06,East,84,4.0,5.0,-999,-99.99,,,-99.99,,2013-02-15 01:32:00,
2013-02-14 20:42:00,44.0,-99.9,30.06,ENE,64,4.0,6.0,-999,-99.99,,,-99.99,,2013-02-15 01:42:00,
2013-02-14 20:52:00,44.0,-99.9,30.06,East,81,3.0,4.0,-999,-99.99,,,-99.99,,2013-02-15 01:52:00,
2013-02-14 21:01:00,44.0,-99.9,30.06,East,80,2.0,4.0,-999,-99.99,,,-99.99,,2013-02-15 02:01:00,
2013-02-14 21:11:00,44.0,-99.9,30.06,East,99,2.0,3.0,-999,-99.99,,,-99.99,,2013-02-15 02:11:00,
2013-02-14 21:21:00,44.0,-99.9,30.07,East,100,2.0,4.0,-999,-99.99,,,-99.99,,2013-02-15 02:21:00,
2013-02-14 21:32:00,44.0,-99.9,30.08,East,95,2.0,2.0,-999,-99.99,,,-99.99,,2013-02-15 02:32:00,
2013-02-14 21:42:00,44.0,-99.9,30.09,East,90,2.0,3.0,-999,-99.99,,,-99.99,,2013-02-15 02:42:00,
2013-02-14 21:52:00,44.0,-99.9,30.08,ENE,66,3.0,4.0,-999,-99.99,,,-99.99,,2013-02-15 02:52:00,
2013-02-14 22:02:00,44.0,-99.9,30.08,NE,56,3.0,4.0,-999,-99.99,,,-99.99,,2013-02-15 03:02:00,
2013-02-14 22:11:00,44.0,-99.9,30.08,NE,56,3.0,4.0,-999,-99.99,,,-99.99,,2013-02-15 03:11:00,
2013-02-14 22:22:00,44.0,-99.9,30.08,ENE,57,3.0,4.0,-999,-99.99,,,-99.99,,2013-02-15 03:22:00,
2013-02-14 22:32:00,46.0,-99.9,30.08,NNE,15,3.0,4.0,-999,-99.99,,,-99.99,,2013-02-15 03:32:00,
2013-02-14 22:42:00,46.0,-99.9,30.08,NNW,332,3.0,4.0,-999,-99.99,,,-99.99,,2013-02-15 03:42:00,
2013-02-14 22:52:00,46.0,-99.9,30.08,NNW,338,5.0,7.0,-999,-99.99,,,-99.99,,2013-02-15 03:52:00,
2013-02-14 23:02:00,46.0,-99.9,30.08,NNW,336,6.0,8.0,-999,-99.99,,,-99.99,,2013-02-15 04:02:00,
2013-02-14 23:11:00,46.0,-99.9,30.08,NNW,337,6.0,7.0,-999,-99.99,,,-99.99,,2013-02-15 04:11:00,
2013-02-14 23:22:00,46.0,-99.9,30.07,NNW,343,6.0,7.0,-999,-99.99,,,-99.99,,2013-02-15 04:22:00,
2013-02-14 23:32:00,46.0,-99.9,30.07,North,6,5.0,7.0,-999,-99.99,,,-99.99,,2013-02-15 04:32:00,
2013-02-14 23:42:00,46.0,-99.9,30.06,NE,37,5.0,6.0,-999,-99.99,,,-99.99,,2013-02-15 04:42:00,
2013-02-14 23:52:00,46.0,-99.9,30.05,NE,47,4.0,6.0,-999,-99.99,,,-99.99,,2013-02-15 04:52:00,